Погода в Рощино

Россия / Челябинская область     55°18′38″N   61°15′48″E
темп.,
°C
ветер,
м/с
пор.,
м/с
влажн.,
%
обл.,
%
осадки,
мм/ч
давл.,
гПа
погр.,
м
2 марта, вт
вт223:00−18ююз229782 0.0 101720
02:00−18юз229848 0.0 101620
05:00−19юз229743 0.0 101620
08:00−19ююз239648 0.0 101326
11:00−13ююз359224 0.0 1012233
14:00−9ююз479223 0.0 1008359
17:00−9ююз599061 0.0 1006353
20:00−9ююз51191100 0.0 1004326
3 марта, ср
ср323:00−7юз51286100 0.3 1004439
02:00−9юз4894100 0.1 1003220
05:00−10ююз51091100 0.6 1002333
08:00−9ююз51186100 0.0 1000299
11:00−5юз598592 0.0 1000372
14:00−2юз588450 0.0 999652
17:00−2ююз598873 0.0 1000447
20:00−5ююз3891100 0.0 1000179
4 марта, чт
чт423:00−6ююз249497 0.0 99989
02:00−6зюз229594 0.0 99824
05:00−6з338997 0.0 99765
08:00−8зюз4108782 0.0 997248
11:00−6з5118288 0.0 999739
14:00−5зсз7117761 0.0 10001134
17:00−6зюз4108257 0.0 1001931
20:00−10зюз388767 0.0 1002153
5 марта, пт
пт523:00−11юз498545 0.0 1003179
02:00−9ююз5128697 0.0 1002356
05:00−8ююз61484100 0.0 1001493
08:00−5ююз81684100 0.0 998579
11:00−1юз71579100 0.0 9971411
14:00+1зюз61383100 0.1 9971411
17:00+1зюз6137999 0.1 10001083
20:00−3зюз6138184 0.3 1003483
6 марта, сб
сб623:00−8з4118685 0.3 1006328
02:00−10з411870 0.0 1009250
05:00−11з410880 0.0 1012188
08:00−13зюз47890 0.0 1014123
11:00−9зюз368523 0.0 1014472
14:00−7юз3584100 0.0 1014500
17:00−6ююв3587100 0.0 1011515
20:00−8юв4796100 1.0 1006315